[[{"header":{"parameterUnit":"m.s-1","parameterCategory":1,"la1":30.2991,"la2":30.254,"lo1":-89.0895,"lo2":-89.0444,"dy":0.0017,"dx":0.0017,"nx":28,"ny":28,"refTime":"2024-02-11T09:00:00:Z","depth":0,"parameterNumber":2,"parameterNumberName":"U-component_of_WINDS"},"data":[0,0,0,0,0,0,0,0,0,0,0,0,0,0,0,0,0,0,0,0,0,0,0,0,0,0,0,0,0,0,0,0,0,0,0,0,0,0,0,0,0,0,0,0,0,0,0,0,0,0,0,0,0,0,0,0,0,0,0.3504,0.3505,0,0.3548,0.3549,0.3549,0.3537,0.3537,0.3536,0.3535,0.358,0.3582,0.3584,0,0,0,0,0,0,0,0,0,0,0,0,0,0.3411,0.3412,0.3504,0.3505,0.3505,0.3548,0.3549,0.355,0.3538,0.3537,0.3535,0.3534,0.358,0.3582,0.3585,0,0,0,0,0,0,0,0,0,0,0,0,0,0.3453,0.3413,0.3504,0.3505,0.3505,0.3548,0.3549,0.355,0.3538,0.3537,0.3535,0.3534,0.3579,0.3582,0.3585,0.363,0,0,0.3594,0.3596,0,0,0,0,0,0,0,0,0.345,0.3456,0.3504,0.3505,0.3505,0.3536,0.3533,0.3577,0.3538,0.3525,0.3535,0.3533,0.3567,0.3571,0.3582,0.3633,0.3635,0.3595,0.3596,0.3598,0.3599,0,0,0,0,0,0,0,0.3447,0.3454,0.3522,0.3505,0.3506,0.3503,0.3507,0.3541,0.3553,0.3526,0.3526,0.3531,0.3567,0.3579,0.3583,0.3635,0.3595,0.3597,0.3599,0.36,0.3727,0.3728,0,0,0,0,0,0,0.3444,0.3452,0.352,0.3523,0.3474,0.3506,0.3511,0.3528,0.3553,0.3555,0.3532,0.353,0.3574,0.3579,0.3585,0.3641,0.3598,0.3601,0.3602,0.3726,0.3727,0.3729,0,0,0,0,0,0,0.3442,0.345,0.3519,0.3487,0.3496,0.3509,0.3528,0.3529,0.3541,0.3557,0.3559,0.3542,0.3574,0.358,0.3619,0.3642,0.3602,0.3605,0.3724,0.3726,0.3728,0.3753,0,0,0,0,0,0,0.3439,0.345,0.3467,0.3488,0.3498,0.3553,0.3529,0.3531,0.3547,0.3545,0.3567,0.357,0.3573,0.3615,0.3623,0.3646,0.3607,0.3722,0.3725,0.3727,0.3751,0.3756,0.3761,0,0,0,0,0,0.3436,0.3472,0.3468,0.3476,0.3519,0.3554,0.356,0.3563,0.3548,0.3566,0.3576,0.3569,0.3638,0.3619,0.3627,0.3652,0.372,0.3724,0.3727,0.3748,0.3755,0.3761,0,0,0,0,0,0,0.3453,0.3475,0.347,0.3514,0.3532,0.3552,0.3574,0.357,0.3593,0.359,0.3593,0.3598,0.3639,0.3649,0.3627,0.3698,0.3677,0.3683,0.369,0.3697,0.3702,0.37,0.361,0,0,0,0,0,0.3462,0.3488,0.3505,0.3542,0.3552,0.3561,0.3577,0.3578,0.3597,0.3605,0.3618,0.3637,0.3663,0.368,0.3705,0.3751,0.3757,0.3772,0.3778,0.3782,0.3787,0.3814,0.3822,0.374,0.374,0.374,0,0,0.348,0.3495,0.3512,0.3546,0.356,0.3588,0.3568,0.3598,0.3619,0.3609,0.3648,0.3658,0.3679,0.3723,0.3742,0.3733,0.381,0.3786,0.379,0.3793,0.3818,0.3826,0.3833,0.3743,0.3742,0.3742,0,0,0.3529,0.3542,0.3575,0.359,0.3612,0.3618,0.3626,0.3647,0.3654,0.3692,0.3686,0.371,0.3755,0.3771,0.3785,0.384,0.3835,0.3848,0.3876,0.3903,0.3909,0.3915,0.3936,0.3944,0.3853,0.3853,0.3853,0,0.3549,0.359,0.3592,0.3623,0.3639,0.3632,0.3666,0.368,0.3709,0.3721,0.3709,0.3765,0.3779,0.3827,0.3841,0.3852,0.3862,0.3847,0.3908,0.3914,0.3919,0.394,0.3947,0.3855,0.3854,0.3854,0.3854,0,0.3615,0.3644,0.3668,0.3697,0.3715,0.3748,0.3755,0.3773,0.3773,0.378,0.382,0.3836,0.3865,0.3876,0.3876,0.3925,0.3918,0.3907,0.3886,0.3928,0.3948,0.3956,0.3857,0.3856,0.3856,0.3855,0,0,0.3676,0.3706,0.3715,0.3729,0.3753,0.3776,0.3808,0.3836,0.3853,0.3873,0.3901,0.3939,0.3929,0.3945,0.3946,0.3969,0.4013,0.3955,0.3956,0.3967,0.407,0.408,0.4089,0.4009,0.4011,0.4012,0.4069,0,0.3728,0.3785,0.3788,0.384,0.3868,0.3861,0.3889,0.3908,0.3916,0.394,0.3949,0.3977,0.3961,0.3971,0.3993,0.4003,0.4035,0.3999,0.4036,0.4038,0.4033,0.4099,0.4109,0.4163,0.4077,0.4078,0.4079,0,0.3796,0.382,0.3875,0.3896,0.3908,0.3933,0.396,0.3984,0.4004,0.4009,0.4027,0.4025,0.4058,0.4035,0.4082,0.4058,0.4073,0.4081,0.4083,0.4088,0.4062,0.4108,0.418,0.4189,0.409,0.409,0.4089,0,0.3838,0.3883,0.3922,0.3934,0.3959,0.3978,0.3989,0.4008,0.4025,0.4049,0.406,0.4087,0.4102,0.4123,0.4128,0.411,0.4176,0.4152,0.4181,0.4181,0.4197,0.4196,0.4274,0.4203,0.4203,0.4203,0.4203,0,0.3897,0.3931,0.3941,0.3966,0.4004,0.4007,0.4046,0.4056,0.4073,0.41,0.4095,0.412,0.4124,0.415,0.4155,0.4194,0.42,0.4205,0.4206,0.4207,0.4207,0.4219,0.4216,0.4205,0.4205,0.4204,0.4204,0,0.395,0.3958,0.4001,0.4022,0.4028,0.4056,0.4074,0.4097,0.4105,0.4139,0.4147,0.4158,0.4189,0.4196,0.4232,0.4235,0.4282,0.4278,0.4276,0.4276,0.4305,0.4303,0.4395,0.4408,0.4327,0.4328,0.4328,0,0.3988,0.4015,0.4039,0.4057,0.4069,0.4097,0.4115,0.4119,0.4138,0.4164,0.4185,0.4215,0.424,0.4289,0.4301,0.4329,0.4327,0.4357,0.4331,0.4331,0.433,0.4329,0.4332,0.4363,0.4364,0.4364,0.4365,0,0.4055,0.4058,0.4084,0.4113,0.4134,0.4156,0.4177,0.4192,0.4199,0.422,0.4252,0.4271,0.4308,0.4338,0.4366,0.4378,0.4374,0.4373,0.4381,0.4383,0.4381,0.4385,0.4291,0.4371,0.437,0.437,0.437,0.4369,0.4104,0.4128,0.4149,0.4179,0.4195,0.4215,0.4239,0.425,0.4276,0.4307,0.4308,0.4342,0.4363,0.44,0.4414,0.4441,0.4432,0.4444,0.4447,0.4451,0.4454,0.4375,0.4446,0.4446,0.4446,0.4446,0.4446,0,0.4173,0.4186,0.4213,0.4243,0.4267,0.426,0.4283,0.4303,0.4334,0.4354,0.4378,0.4415,0.4445,0.4459,0.4488,0.4508,0.4506,0.4515,0.4515,0.4518,0.446,0.4451,0.4516,0.4516,0.4516,0.4516,0.4516,0.4516,0.4211,0.4252,0.4258,0.4307,0.432,0.4355,0.4369,0.4387,0.4403,0.4445,0.447,0.4479,0.4497,0.4528,0.4555,0.4558,0.457,0.4581,0.4583,0.4529,0.4522,0.4515,0.4507,0.4583,0.4583,0.464,0.464,0.464]},{"header":{"parameterUnit":"m.s-1","parameterCategory":1,"la1":30.2991,"la2":30.254,"lo1":-89.0895,"lo2":-89.0444,"dy":0.0017,"dx":0.0017,"nx":28,"ny":28,"refTime":"2024-02-11T09:00:00:Z","depth":0,"parameterNumber":3,"parameterNumberName":"V-component_of_WINDS"},"data":[0,0,0,0,0,0,0,0,0,0,0,0,0,0,0,0,0,0,0,0,0,0,0,0,0,0,0,0,0,0,0,0,0,0,0,0,0,0,0,0,0,0,0,0,0,0,0,0,0,0,0,0,0,0,0,0,0,0,2.5635,2.5636,0,2.5701,2.5702,2.5703,2.5683,2.5682,2.568,2.5679,2.5745,2.5748,2.5751,0,0,0,0,0,0,0,0,0,0,0,0,0,2.549,2.5493,2.5635,2.5636,2.5637,2.5701,2.5702,2.5703,2.5683,2.5682,2.568,2.5678,2.5744,2.5748,2.5752,0,0,0,0,0,0,0,0,0,0,0,0,0,2.5554,2.5494,2.5635,2.5635,2.5635,2.5701,2.5702,2.5703,2.5684,2.5682,2.5679,2.5678,2.5743,2.5748,2.5752,2.5821,0,0,2.5766,2.5768,0,0,0,0,0,0,0,0,2.5551,2.5559,2.5634,2.5635,2.5636,2.5682,2.5675,2.5743,2.5684,2.5665,2.5679,2.5677,2.5726,2.5732,2.5748,2.5824,2.5827,2.5766,2.5769,2.5771,2.5772,0,0,0,0,0,0,0,2.5546,2.5557,2.5661,2.5635,2.5636,2.5631,2.5638,2.5688,2.5706,2.5667,2.5665,2.5674,2.5726,2.5744,2.575,2.5828,2.5766,2.577,2.5773,2.5775,2.5964,2.5966,0,0,0,0,0,0,2.5541,2.5553,2.5659,2.5663,2.5587,2.5635,2.5643,2.5669,2.5706,2.5709,2.5675,2.5672,2.5737,2.5745,2.5752,2.5836,2.5771,2.5775,2.5778,2.5962,2.5964,2.5967,0,0,0,0,0,0,2.5538,2.5551,2.5656,2.5608,2.5621,2.564,2.5669,2.5671,2.569,2.5712,2.5715,2.5691,2.5736,2.5746,2.5804,2.5838,2.5777,2.5782,2.5959,2.5962,2.5966,2.6004,0,0,0,0,0,0,2.5534,2.555,2.5577,2.5609,2.5623,2.5708,2.5672,2.5674,2.5698,2.5695,2.5727,2.5731,2.5735,2.5798,2.5809,2.5843,2.5785,2.5956,2.596,2.5964,2.6,2.6008,2.6016,0,0,0,0,0,2.5529,2.5585,2.5579,2.5592,2.5658,2.571,2.5719,2.5723,2.5701,2.5728,2.5742,2.573,2.5832,2.5804,2.5816,2.5852,2.5954,2.5959,2.5964,2.5996,2.6007,2.6015,0,0,0,0,0,0,2.5557,2.5589,2.5582,2.565,2.5678,2.5707,2.5742,2.5734,2.5768,2.5764,2.5766,2.5774,2.5834,2.5849,2.5817,2.5921,2.589,2.5897,2.591,2.592,2.5928,2.5923,2.5789,0,0,0,0,0,2.5571,2.5612,2.5637,2.5695,2.5709,2.5723,2.5746,2.5746,2.5775,2.5786,2.5805,2.5832,2.587,2.5896,2.5932,2.6001,2.6008,2.6032,2.604,2.6046,2.6054,2.6091,2.6102,2.5984,2.5984,2.5984,0,0,2.5601,2.5623,2.5649,2.5701,2.5722,2.5764,2.5733,2.5778,2.5808,2.5793,2.585,2.5864,2.5895,2.5959,2.5988,2.5973,2.6087,2.6053,2.6058,2.6062,2.6098,2.6109,2.6119,2.5987,2.5987,2.5986,0,0,2.5676,2.5697,2.5748,2.5769,2.5802,2.5811,2.5823,2.5853,2.5862,2.5919,2.5908,2.5944,2.601,2.6032,2.6052,2.6134,2.6125,2.6146,2.6188,2.6224,2.6234,2.6242,2.6272,2.6283,2.6153,2.6153,2.6153,0,2.5709,2.5772,2.5774,2.5821,2.5844,2.5831,2.5882,2.5903,2.5945,2.5961,2.5944,2.6026,2.6045,2.6115,2.6135,2.6151,2.6165,2.6143,2.6232,2.624,2.6248,2.6277,2.6288,2.6155,2.6155,2.6155,2.6154,0,2.581,2.5854,2.589,2.5932,2.5959,2.6008,2.6017,2.6044,2.6041,2.6052,2.6109,2.6132,2.6173,2.6189,2.6188,2.6258,2.6248,2.6231,2.62,2.6262,2.6289,2.63,2.6159,2.6158,2.6157,2.6157,0,0,2.5907,2.5949,2.5963,2.5982,2.6016,2.6049,2.6096,2.6137,2.616,2.6189,2.6228,2.6284,2.6268,2.6291,2.6291,2.6323,2.6387,2.6302,2.6303,2.6318,2.6467,2.648,2.6493,2.638,2.6382,2.6384,2.6464,0,2.5986,2.607,2.6073,2.615,2.619,2.6178,2.6218,2.6243,2.6254,2.6289,2.6299,2.6339,2.6315,2.6329,2.636,2.6373,2.6417,2.6367,2.6417,2.6419,2.6411,2.6507,2.6522,2.6597,2.6475,2.6477,2.6478,0,2.6091,2.6124,2.6204,2.6232,2.6249,2.6286,2.6323,2.6356,2.6384,2.6389,2.6414,2.6409,2.6456,2.6422,2.6487,2.6453,2.6473,2.6482,2.6485,2.6491,2.6453,2.6517,2.6621,2.6633,2.6494,2.6493,2.6492,0,2.6155,2.6219,2.6275,2.6292,2.6326,2.6352,2.6367,2.6393,2.6416,2.6448,2.6463,2.65,2.652,2.6548,2.6553,2.6527,2.6618,2.6584,2.6624,2.6624,2.6645,2.6644,2.6755,2.6656,2.6655,2.6655,2.6655,0,2.6244,2.6294,2.6305,2.634,2.6395,2.6397,2.6451,2.6464,2.6487,2.6523,2.6514,2.6548,2.6552,2.6587,2.6591,2.6644,2.6653,2.6659,2.6659,2.666,2.666,2.6675,2.667,2.6658,2.6657,2.6657,2.6656,0,2.6326,2.6335,2.6396,2.6422,2.643,2.647,2.6493,2.6525,2.6534,2.658,2.6591,2.6605,2.6646,2.6653,2.6701,2.6703,2.6767,2.6762,2.6758,2.6758,2.6798,2.6794,2.6924,2.6941,2.6829,2.683,2.6831,0,2.6383,2.6421,2.6452,2.6476,2.6493,2.6531,2.6556,2.6558,2.6584,2.6617,2.6646,2.6686,2.6718,2.6784,2.6798,2.6834,2.683,2.6873,2.6836,2.6835,2.6832,2.683,2.6834,2.6881,2.6882,2.6883,2.6884,0,2.6484,2.6486,2.6522,2.6559,2.6588,2.6617,2.6644,2.6664,2.667,2.6699,2.6741,2.6766,2.6815,2.6854,2.689,2.6905,2.6896,2.6895,2.6906,2.6908,2.6905,2.6908,2.6779,2.6892,2.6891,2.6891,2.689,2.689,2.6556,2.6589,2.6616,2.6656,2.6676,2.6702,2.6734,2.6747,2.6782,2.6822,2.6821,2.6867,2.6892,2.694,2.6956,2.6992,2.6978,2.6994,2.6999,2.7003,2.7007,2.6898,2.6998,2.6998,2.6998,2.6997,2.6997,0,2.6657,2.6673,2.671,2.6749,2.6779,2.6767,2.6797,2.6823,2.6864,2.6889,2.692,2.6968,2.7006,2.7022,2.7059,2.7084,2.7081,2.7094,2.7093,2.7096,2.7017,2.7004,2.7096,2.7096,2.7096,2.7096,2.7096,2.7096,2.6713,2.6769,2.6775,2.684,2.6856,2.6901,2.6919,2.6942,2.6962,2.7016,2.7048,2.7058,2.7079,2.7117,2.7151,2.7154,2.7169,2.7184,2.7186,2.7112,2.7102,2.7093,2.708,2.7187,2.7187,2.7263,2.7264,2.7264]}]]